Location: *
(48.8780°N, 19.2358°E)
Time: 11:20:47
(UTC+00:00)

USA 116 - Pass Details

Date: 18 October 2019
Orbit: 405 x 834 km, 97.9° (Epoch: 18 November)

Event Time Altitude Azimuth Distance (km) Brightness Sun altitude
Rises 17:26:39 0° 11° (N) 2,347 6.9 -16.9°
Reaches altitude 10° 17:28:36 10° 9° (N) 1,492 5.9 -17.2°
Maximum altitude 17:31:44 67° 286° (WNW) 466 3.5 -17.7°
Drops below altitude 10° 17:35:02 10° 203° (SSW) 1,572 6.2 -18.3°
Sets 17:37:08 0° 201° (SSW) 2,489 7.3 -18.6°
